Вернуться в каталог

FENGYUN 1C DEB

АктивенSSO
NORAD 30524·DEBRIS·🇨🇳 China

Запущен May 10, 1999 с Taiyuan Satellite Launch Center

Loading…

Ближайшие Пролёты (ближайшие 24 часа)

TLE

СвежийSource: Space-Track

Эпоха: Sep 12, 2026, 23:42 UTC

1 30524U 99025AJN 26255.98799716  .00004398  00000-0  27903-2 0  9992
2 30524  99.3226  75.4716 0199061 226.6312 131.8118 13.95149215977067

Отслеживайте FENGYUN 1C DEB в реальном времени с AllMySat

Download on the App Store